DELTA 1 DEB, 18467

Orbit data source: Space-Track

DELTA 1 DEB, 18467 is space debris in SSO originally from a launch on Sun, 05 Mar 1978 UTC launched from the Air Force Western Test Range (AFWTR). Debris objects in space refer to the collection of defunct objects orbiting the Earth. Examples of debris include non-operational satellites, rocket bodies, and fragments generated from explosions, collisions, or faulty payload assembly.

Loading next visibility...
Identifier
18467, 1978-026HE
Orbit
SSO
Country
Flag of USUS
Related business
Manufacturer
Unknown
Mission
Spacecraft
Bus & Motor
Unknown
Mass
Unknown
Launch date (UTC)
1978-03-05 (48 years ago)
Launch vehicle
Unknown
Launch site
Air Force Western Test Range (AFWTR)
Object type
Payload
Rocket body
Debris
Shape & HBR
Unknown shape, 0.1 m
Radar Cross Section
Medium (>0.1 m² and <1 m²)

Expand to show TLE details & history
Last TLE update: 4 days ago

TLE from 4 days ago
0 DELTA 1 DEB
1 18467U 78026HE  26169.02981062  .00000351  00000-0  15908-3 0  9996
2 18467  98.8221 194.2037 0093235  38.8384 350.9851 14.25831179144933
Epoch: 2026-06-18T00:42Z
TLE epoch observation values (Epoch: 2026-06-18T00:42:55.637Z)
Latitude
29.31888°
Longitude
-87.78068°
Altitude
743.194 km
Speed
7.52 km/s
True Right ascension
12h 36m 55s
True Declination
29° 10' 19"
Sunlit
Object was in daylight at epoch
Visualization orbit readout
Latitude
Unknown
Longitude
Unknown
Altitude
Unknown
Speed
Unknown
Apparent Right ascension
Unknown
Apparent Declination
Unknown
Sunlit
N/A
Visualization observer readout
Local Sidereal Time
23:09:13
Azimuth
Unknown
Elevation
Unknown
Doppler factor
Unknown
Orbital elements
Apogee altitude
869.807 km
Perigee altitude
735.903 km
Semi-major axis
7,180.992 km
Eccentricity
0.00932
Inclination
98.8221°
RAAN
194.2037°
Arg. of periapsis
38.8384°
True anomaly
350.81574°
Mean anomaly
350.9851°
Eccentric anomaly
350.90062°
Mean motion
3.5667 °/min
Orbital period
100.93 mins
BSTAR
0.00015908
Loading maneuver chart data...
Computing Atmospheric mass density...

Documentation

Showing up to 5 results
|